Flag for Greece Weather past 2 weeks in Kalamata, Greece

Now
59 °F

Scattered clouds.


Feels Like: 59 °F
Forecast: 40 / 57 °F
Wind: No wind

Location: Kalamata Airport

Current Time: Dec 21, 2014 at 11:38:01 AM

Latest Report: Dec 21, 2014 at 10:50 AM


Visibility: 6 mi

Pressure: 30.15 "Hg

Humidity: 72%

Dew point: 50 °F

Location of KalamataLocation

Historic Weather in Kalamata — Graph

°F

Kalamata temperature yesterday

Maximum temperature yesterday: 64 °F (at 12:20 PM)
Minimum temperature yesterday: 39 °F (at 7:20 AM)
Average temperature yesterday: 51 °F

Past Weeks' High & Low Weather Summary

 TemperatureHumidityPressure
High70 °F (Dec 13, 12:50 PM)100% (Dec 7, 12:50 AM)30.30 "Hg (Dec 7, 12:50 AM)
Low39 °F (Dec 20, 7:20 AM)40% (Dec 13, 12:50 PM)29.56 "Hg (Dec 8, 4:50 PM)
Average53 °F82%30.01 "Hg
* Reported Dec 6 9:20 AM — Dec 21 9:50 AM, Kalamata, Weather by CustomWeather, © 2014

Note: Actual official high and low records may vary slightly from our data, if they occured in-between our weather recording intervals... More about our weather records

Advertising

Kalamata weather history for previous 24 hours

 ConditionsComfort  
Time TempWeatherWind HumidityBarometerVisibility
9:50 AM
Dec 21
54 °FPartly sunny.No wind82%30.15 "Hg6 mi
9:20 AM50 °FPartly sunny.No wind94%30.12 "Hg4 mi
8:50 AM46 °FPartly sunny.No wind93%30.15 "Hg5 mi
8:20 AM46 °FScattered clouds.No wind93%30.12 "Hg5 mi
7:50 AM46 °FScattered clouds.No wind93%30.12 "Hg5 mi
7:20 AM48 °FPassing clouds.No wind87%30.12 "HgN/A
6:50 AM50 °FCool.3 mph88%30.12 "HgN/A
6:20 AM48 °FCool.3 mph94%30.12 "HgN/A
5:50 AM46 °FCool.5 mph93%30.12 "HgN/A
5:20 AM46 °FCool.2 mph93%30.12 "HgN/A
4:50 AM48 °FCool.2 mph87%30.12 "HgN/A
4:20 AM48 °FCool.2 mph94%30.15 "HgN/A
3:50 AM46 °FCool.2 mph93%30.15 "HgN/A
3:20 AM50 °FCool.3 mph88%30.15 "HgN/A
2:50 AM48 °FCool.2 mph94%30.15 "HgN/A
2:20 AM48 °FCool.3 mph94%30.15 "HgN/A
1:50 AM50 °FCool.3 mph88%30.15 "HgN/A
1:20 AM50 °FCool.3 mph88%30.15 "HgN/A
12:50 AM50 °FCool.5 mph88%30.15 "HgN/A
12:20 AM50 °FCool.5 mph88%30.18 "HgN/A
11:50 PM
Dec 20
50 °FCool.5 mph88%30.18 "HgN/A
11:20 PM48 °FCool.3 mph94%30.18 "HgN/A
10:50 PM48 °FCool.2 mph94%30.18 "HgN/A
10:20 PM46 °FCool.2 mph93%30.18 "HgN/A
9:50 PM45 °FQuite cool.1 mph93%30.18 "HgN/A
9:20 PM46 °FCool.3 mph93%30.18 "HgN/A
8:50 PM48 °FCool.3 mph87%30.18 "HgN/A
8:20 PM48 °FCool.3 mph94%30.15 "HgN/A
7:50 PM48 °FPassing clouds.5 mph87%30.15 "HgN/A
6:50 PM52 °FPassing clouds.No wind82%30.15 "HgN/A
6:20 PM52 °FPassing clouds.5 mph82%30.15 "HgN/A
5:50 PM54 °FPassing clouds.No wind77%30.15 "HgN/A
5:20 PM55 °FPassing clouds.5 mph72%30.15 "HgN/A
4:50 PM59 °FPassing clouds.5 mph63%30.15 "HgN/A
4:20 PM63 °FPassing clouds.No wind52%30.15 "HgN/A
3:50 PM63 °FPassing clouds.5 mph52%30.15 "HgN/A
3:20 PM64 °FPassing clouds.6 mph46%30.15 "HgN/A
2:50 PM64 °FPassing clouds.7 mph46%30.15 "HgN/A
1:50 PM64 °FPassing clouds.9 mph46%30.15 "HgN/A
12:50 PM64 °FPassing clouds.9 mph56%30.18 "HgN/A
12:20 PM64 °FPassing clouds.6 mph52%30.18 "HgN/A
11:50 AM63 °FPassing clouds.6 mph56%30.18 "HgN/A
11:20 AM61 °FPassing clouds.5 mph63%30.21 "HgN/A
Weather by CustomWeather, © 2014

See weather overviewHow to use our weather pages